GEOSCAN 6 (RS92S6)

Last updated on Sun Jun 21 2026 00:03:20 GMT+0000 (Coordinated Universal Time)

1 64879U 25155D 26171.38588257 .00008661 00000+0 29867-3 0 9990 2 64879 97.4559 139.9499 0008778 152.3078 207.8631 15.30202444 81253
UTC large
Height (km)
Speed (km/s)
/
Latitude / Longitude
Inclination (degrees)
Orbital Period (minutes)
Azimuth
Elevation
Range (km)
Doppler Factor

Next 0 passes for location: London (51.5072 / 0.1276)

No passes found over London.
GEOSCAN 6 (RS92S6)